Weather History for Rexburg, ID

Change the Weather History Date:

Sunday, February 16, 2014

  Actual Average Record
Temperature  
Mean Temperature 34 °F 22 °F  
Max Temperature 41 °F 32 °F 45 °F (2007)
Min Temperature 27 °F 12 °F -8 °F (2002)
Degree Days  
Heating Degree Days 31 43  
Month to date heating degree days 693 709  
Since 1 July heating degree days 5423 5486  
Cooling Degree Days 0 0  
Month to date cooling degree days 0 0  
Year to date cooling degree days 0 0  
Moisture  
Dew Point 28 °F    
Average Humidity 76    
Maximum Humidity 100    
Minimum Humidity 51    
Precipitation  
Precipitation 0.05 in 0.03 in 0.20 in (2003)
Month to date precipitation 0.50 0.47  
Year to date precipitation 1.36 1.21  
Sea Level Pressure  
Sea Level Pressure 29.85 in    
Wind  
Wind Speed 13 mph (SW)    
Max Wind Speed 36 mph    
Max Gust Speed 47 mph    
Visibility 10 miles    
Events Rain , Snow    
T = Trace of Precipitation, MM = Missing Value Source: NWS Daily Summary

Daily Weather History Graph

Daily Weather History Graph

Search for Another Location

Airport:

Trip Planner

Search our weather history database for the weather conditions in past years. The results will help you decide how hot, cold, wet, or windy it might be!

Date:

Astronomy

Feb. 16, 2014 Rise Set
Actual Time 7:24 AM MST 5:58 PM MST
Civil Twilight 6:55 AM MST 6:28 PM MST
Nautical Twilight 6:21 AM MST 7:01 PM MST
Astronomical Twilight 5:48 AM MST 7:35 PM MST
Moon 8:04 PM MST (2/16) 7:51 AM MST (2/16)
Length of Visible Light 11h 33m
Length of Day
10h 34m
Full, 97% of the Moon is Illuminated
Feb 16
Full
Feb 22
Last Quarter
Mar 1
New
Mar 8
First Quarter
Mar 16
Full

Hourly Weather History & Observations

Time (MST) Temp. Windchill Dew Point Humidity Pressure Visibility Wind Dir Wind Speed Gust Speed Precip Events Conditions
12:53 AM 37.0 °F 33.3 °F 30.9 °F 79% 29.79 in 10.0 mi South 4.6 mph - N/A   Overcast
1:53 AM 37.0 °F 32.4 °F 32.0 °F 82% 29.79 in 10.0 mi WNW 5.8 mph - N/A   Overcast
2:53 AM 36.0 °F 31.1 °F 30.9 °F 82% 29.78 in 10.0 mi South 5.8 mph - 0.00 in Rain Light Rain
3:53 AM 39.0 °F 32.8 °F 30.9 °F 73% 29.74 in 10.0 mi South 9.2 mph - 0.00 in   Overcast
4:53 AM 39.9 °F 32.5 °F 30.9 °F 70% 29.71 in 10.0 mi SSW 12.7 mph - N/A   Mostly Cloudy
5:53 AM 39.9 °F 32.1 °F 30.9 °F 70% 29.71 in 10.0 mi SSW 13.8 mph 21.9 mph N/A   Scattered Clouds
6:53 AM 39.9 °F 31.1 °F 30.9 °F 70% 29.70 in 10.0 mi SSW 17.3 mph 28.8 mph N/A   Clear
7:53 AM 39.0 °F 28.0 °F 32.0 °F 76% 29.70 in 10.0 mi SSW 25.3 mph 34.5 mph N/A   Scattered Clouds
8:53 AM 39.0 °F 30.3 °F 34.0 °F 82% 29.70 in 10.0 mi South 16.1 mph 25.3 mph N/A   Clear
9:53 AM 39.0 °F 29.3 °F 33.1 °F 79% 29.70 in 10.0 mi SSW 19.6 mph 29.9 mph N/A   Clear
10:53 AM 39.0 °F 28.0 °F 32.0 °F 76% 29.72 in 10.0 mi SW 25.3 mph 38.0 mph N/A   Overcast
11:01 AM 39.0 °F 28.0 °F 32.0 °F 76% 29.69 in 10.0 mi SW 25.3 mph 42.6 mph N/A   Overcast
11:35 AM 33.1 °F 21.2 °F 30.9 °F 92% 29.71 in 2.0 mi West 20.7 mph 40.3 mph 0.03 in Snow Light Snow
11:43 AM 33.1 °F 23.0 °F 33.1 °F 100% 29.72 in 5.0 mi WSW 15.0 mph 35.7 mph 0.03 in Snow Light Snow
11:53 AM 34.0 °F 24.2 °F 34.0 °F 100% 29.75 in 10.0 mi SSW 15.0 mph - 0.03 in   Overcast
12:03 PM 36.0 °F 25.0 °F 36.0 °F 100% 29.73 in 10.0 mi SSW 20.7 mph 27.6 mph N/A   Mostly Cloudy
12:38 PM 34.0 °F 20.5 °F 34.0 °F 100% 29.76 in 10.0 mi SW 28.8 mph 44.9 mph N/A   Mostly Cloudy
12:53 PM 34.0 °F 19.3 °F 33.1 °F 96% 29.80 in 10.0 mi SW 35.7 mph 46.0 mph N/A   Mostly Cloudy
1:27 PM 36.0 °F 24.4 °F 35.1 °F 97% 29.77 in 10.0 mi SW 23.0 mph 39.1 mph N/A   Mostly Cloudy
1:53 PM 37.0 °F 26.7 °F 28.9 °F 73% 29.81 in 10.0 mi SW 19.6 mph 39.1 mph N/A   Mostly Cloudy
2:53 PM 35.1 °F 28.6 °F 24.1 °F 64% 29.87 in 8.0 mi North 8.1 mph 17.3 mph 0.01 in Snow Light Snow
3:53 PM 36.0 °F - 21.0 °F 55% 29.91 in 10.0 mi Calm Calm - 0.00 in   Overcast
4:53 PM 36.0 °F - 21.0 °F 55% 29.96 in 9.0 mi Calm Calm - 0.00 in   Overcast
5:53 PM 34.0 °F 28.0 °F 18.0 °F 52% 30.02 in 10.0 mi West 6.9 mph - 0.01 in   Mostly Cloudy
6:53 PM 30.9 °F 22.8 °F 21.0 °F 67% 30.09 in 10.0 mi WSW 9.2 mph - N/A   Clear
7:53 PM 28.9 °F 21.9 °F 21.9 °F 75% 30.14 in 10.0 mi SSW 6.9 mph - N/A   Clear
8:53 PM 28.9 °F 19.8 °F 21.9 °F 75% 30.17 in 10.0 mi SSW 10.4 mph - N/A   Clear
9:53 PM 28.0 °F 17.0 °F 19.9 °F 72% 30.19 in 10.0 mi SSW 13.8 mph 20.7 mph N/A   Clear
10:53 PM 28.0 °F 17.0 °F 19.0 °F 69% 30.19 in 10.0 mi South 13.8 mph - N/A   Clear
11:53 PM 28.0 °F 16.5 °F 19.0 °F 69% 30.22 in 10.0 mi South 15.0 mph - N/A   Clear